GFSCGP_925_thetae_000.txt.gz
Theta_e
309 312 313 310 309 312 311 309 307 306 305 308 307 307 308 306 298 298 296 293 293 292 290 291 290 290 290 290 290 289 288 288 288 287 287 286 286 287 286 286 285 285 285 284
311 312 310 311 309 308 308 309 307 306 305 305 306 306 306 306 302 300 299 295 294 292 288 289 289 289 290 290 289 289 288 287 287 286 285 284 284 285 285 284 284 284 283 283
312 313 309 310 308 308 307 307 307 308 304 302 301 304 302 303 302 301 299 298 295 293 290 288 288 289 289 289 289 289 287 286 286 285 284 284 283 282 282 282 283 282 282 281
311 309 308 307 308 306 310 305 306 306 304 306 304 311 304 305 304 301 301 296 295 292 290 289 288 288 289 289 289 288 287 286 285 285 283 282 281 280 281 281 281 281 281 281
313 307 307 308 308 305 308 304 304 304 304 301 303 302 302 299 303 304 302 299 296 292 290 289 288 288 289 289 288 288 287 285 284 283 282 281 280 280 280 279 279 278 279 279
308 305 304 307 304 304 303 305 301 297 299 305 305 304 304 301 302 302 300 297 295 290 289 289 288 289 289 288 288 287 286 284 283 282 282 280 279 279 278 279 277 278 277 278
310 306 304 305 307 306 304 306 311 309 305 311 300 300 307 303 300 301 301 296 293 289 288 287 287 287 288 288 287 287 285 283 282 282 281 279 278 278 277 277 276 276 276 276
313 313 305 303 306 307 303 306 311 308 308 309 298 307 308 301 299 293 291 290 291 288 288 288 288 287 287 287 287 286 284 282 281 281 280 279 278 277 276 276 275 274 275 275
313 312 303 304 302 304 305 306 305 306 288 300 309 304 303 301 298 294 291 292 291 288 288 288 287 287 287 287 286 285 283 282 280 279 278 278 277 276 275 275 274 273 274 274
312 315 304 300 301 298 301 301 305 304 308 302 307 307 309 309 303 301 293 292 290 287 287 287 287 286 287 287 286 284 282 281 279 278 277 276 276 275 274 274 273 273 273 273
308 312 307 301 302 303 299 302 300 302 304 308 305 310 305 307 305 304 297 293 290 288 287 287 287 286 287 286 285 283 281 280 278 276 275 275 275 274 274 272 272 272 272 272
306 308 312 309 299 296 301 302 303 308 307 302 304 312 302 304 303 299 296 293 289 288 287 286 286 285 285 284 284 282 280 278 276 275 274 275 274 273 271 271 271 271 271 271
305 309 314 311 304 300 298 301 301 301 301 305 308 311 298 298 297 293 294 292 288 286 284 285 284 283 283 283 283 281 278 277 275 274 274 274 272 271 270 270 270 270 269 269
309 309 310 311 309 304 302 300 301 305 308 310 309 310 309 308 308 307 299 290 288 287 286 286 285 283 282 282 281 279 277 276 274 274 272 271 270 269 269 269 269 268 268 267
307 312 310 310 309 302 303 303 303 302 305 308 309 309 309 308 308 308 307 301 289 286 285 285 285 282 280 280 279 277 276 274 273 272 270 270 269 268 268 267 267 267 266 266
301 311 310 311 309 306 308 309 309 302 303 303 306 307 308 308 308 307 306 301 291 287 286 286 285 283 280 279 277 276 274 273 272 270 269 268 267 267 266 266 266 265 265 264
300 305 302 312 306 305 308 309 310 310 309 306 306 307 307 307 307 306 304 295 292 288 286 285 284 283 280 278 277 274 272 272 270 269 268 266 266 266 265 265 264 263 263 263
302 303 308 311 301 312 310 308 305 308 308 308 308 308 308 308 307 296 296 295 290 288 286 285 283 279 277 276 274 272 272 270 269 268 266 266 265 265 265 264 263 262 262 263
305 304 308 311 312 310 308 304 303 303 308 307 306 307 307 306 293 301 291 291 291 287 286 284 280 276 275 273 272 271 270 269 267 266 265 265 265 265 264 263 262 262 262 262
307 307 311 312 313 314 309 306 296 300 309 308 307 306 305 296 303 305 292 286 285 284 281 277 275 274 272 271 271 270 268 267 265 264 264 265 266 265 263 263 262 262 261 262
306 308 311 313 315 312 308 292 296 307 310 306 306 305 304 299 303 292 285 283 282 280 277 274 273 272 270 270 269 268 267 265 264 264 265 266 265 264 264 262 261 261 261 262
311 310 311 309 313 315 304 294 305 308 308 304 298 297 298 297 288 285 283 281 278 276 275 273 271 270 268 268 268 267 266 264 264 264 265 266 266 265 263 261 261 261 262 263
313 311 313 312 311 307 302 309 307 306 308 304 296 294 296 291 288 284 282 279 277 276 274 272 271 268 267 267 267 266 264 263 264 264 265 265 264 264 262 261 261 261 262 264
310 310 311 311 310 308 303 304 307 307 305 304 294 292 291 290 286 284 281 279 277 275 273 271 269 267 265 265 264 264 263 263 263 263 264 263 263 263 262 261 261 261 263 264
311 310 311 311 310 310 309 309 306 300 296 294 291 291 291 289 286 284 282 278 277 275 272 271 270 268 265 263 262 262 262 263 263 262 262 262 261 260 261 261 260 263 264 267
312 312 313 314 311 310 310 309 308 305 299 294 293 290 290 289 286 283 282 279 276 274 271 270 269 267 264 263 261 261 262 262 262 261 260 260 259 259 259 259 260 262 264 265

GFSCGP_925_thetae_003.txt.gz
Theta_e
308 311 311 309 309 311 311 311 311 308 305 307 307 308 308 308 301 302 299 296 295 294 294 290 291 290 290 291 290 289 289 289 288 288 287 287 287 286 287 286 285 285 284 283
309 311 309 309 307 309 308 309 308 306 305 304 305 307 307 307 307 307 303 298 296 295 290 289 289 289 289 290 290 289 289 288 288 287 286 285 285 285 286 285 284 284 283 284
309 310 307 309 308 308 307 308 308 309 304 302 301 305 303 303 303 302 301 300 297 296 292 289 288 288 289 290 290 289 288 287 287 286 285 284 284 284 285 285 285 284 283 284
309 307 309 308 309 307 310 305 307 306 306 309 303 311 305 305 305 303 302 299 299 295 294 290 289 288 288 289 289 289 288 286 286 285 284 283 282 281 282 281 281 282 282 283
310 306 307 309 309 305 309 303 304 304 304 302 303 304 307 300 304 306 305 300 299 296 294 291 289 289 288 289 289 289 288 286 285 284 283 282 281 281 281 280 280 281 281 282
308 304 305 308 303 304 302 303 301 297 300 306 307 307 306 303 304 305 303 301 299 295 292 291 290 289 287 289 289 288 287 285 284 283 282 281 280 280 279 279 278 278 278 280
309 306 304 304 307 305 304 307 311 309 306 311 299 302 308 304 302 304 305 302 297 295 291 290 289 288 288 287 288 287 286 285 283 282 281 280 280 279 278 277 276 277 278 278
311 312 304 303 308 309 304 307 312 310 308 308 297 306 308 302 303 299 297 295 292 292 290 290 289 288 288 287 287 287 286 284 283 282 281 280 278 278 277 276 276 275 275 275
310 311 303 303 302 305 304 306 306 305 289 304 308 306 304 303 301 298 295 292 293 292 289 289 288 288 288 287 286 286 286 284 282 281 280 279 278 277 277 277 275 275 275 274
311 313 304 300 300 298 302 301 307 306 310 306 308 308 309 306 306 303 300 297 296 293 289 288 288 288 287 287 286 286 285 283 281 280 279 279 277 277 276 276 275 275 275 274
309 313 307 302 303 303 301 303 302 304 306 308 306 309 304 306 305 304 303 298 296 295 290 288 288 287 287 285 286 285 283 281 280 279 278 277 277 276 276 275 276 275 273 273
307 310 314 305 300 298 301 304 305 308 308 303 305 310 305 306 304 303 303 299 296 293 290 288 287 287 285 285 283 282 281 280 279 278 277 276 276 275 275 275 274 273 272 272
307 310 313 313 304 300 301 300 302 302 302 309 308 310 305 303 302 300 300 296 295 293 288 286 286 286 286 284 281 281 280 279 278 277 276 275 274 275 274 274 273 273 271 270
309 310 314 311 308 304 303 300 302 304 309 309 308 309 308 308 306 304 300 294 295 292 289 286 286 286 286 283 280 280 278 278 276 275 275 274 274 273 273 272 272 271 269 267
308 313 312 312 310 305 304 305 304 304 306 308 309 308 308 308 308 307 307 306 301 292 287 286 286 286 283 281 279 278 277 275 275 274 274 274 273 272 271 271 269 269 268 267
304 312 310 313 310 306 308 307 309 306 306 304 305 306 307 307 307 306 306 306 305 302 291 287 286 285 282 282 277 276 275 274 274 274 273 272 271 271 270 269 269 268 267 266
305 308 311 314 311 306 309 310 310 309 308 308 309 307 306 306 306 305 305 305 305 303 292 287 286 285 283 281 278 274 274 273 273 272 271 270 270 270 269 268 268 267 266 264
310 309 310 313 310 313 311 308 307 307 307 306 307 308 308 308 307 307 301 304 303 299 291 287 285 284 282 278 276 275 273 273 272 271 269 269 269 268 268 268 267 267 265 264
309 311 312 313 314 312 310 307 304 306 307 307 307 306 307 306 302 304 298 298 300 300 291 286 285 282 276 275 274 273 272 271 270 269 268 268 268 267 267 268 266 265 263 263
309 309 311 313 313 314 309 308 303 301 308 307 307 307 306 304 305 307 304 298 294 289 286 284 280 276 275 272 273 272 270 270 268 268 267 268 267 267 267 266 265 265 264 262
306 310 312 313 314 312 308 303 300 308 310 308 306 306 306 304 306 305 289 286 285 284 281 279 276 276 273 272 272 271 269 268 268 267 267 267 266 267 266 266 264 265 263 262
312 311 312 313 314 314 307 303 307 309 309 308 307 304 303 302 303 294 287 284 281 279 278 277 276 273 271 271 272 270 269 267 266 266 266 266 266 267 266 265 265 265 262 261
313 311 313 311 311 306 306 308 307 308 308 308 308 304 302 302 300 291 287 282 279 279 277 276 274 271 270 270 271 269 266 266 266 265 265 266 266 266 265 265 264 262 262 263
311 310 311 311 311 307 304 305 307 307 306 306 306 303 298 301 297 289 285 282 279 277 276 274 272 271 269 268 269 269 265 265 265 264 264 265 266 266 265 265 263 261 262 264
312 310 312 312 310 309 309 307 306 305 303 298 299 301 298 298 294 291 285 281 279 277 275 273 273 271 268 266 266 265 265 265 263 263 263 263 264 264 264 263 263 262 264 267
307 308 310 312 310 310 310 308 307 307 307 306 305 303 295 297 299 290 285 281 279 277 274 274 272 269 266 264 263 263 264 264 264 262 262 262 262 262 262 262 263 263 264 266

GFSCGP_925_thetae_006.txt.gz
Theta_e
313 316 317 317 317 316 315 316 318 318 311 312 314 314 313 314 313 313 313 313 310 305 304 301 297 294 293 293 292 292 291 291 291 291 291 290 290 289 288 288 288 287 286 285
314 315 317 313 313 314 315 317 319 317 309 309 312 312 312 312 313 313 313 314 312 306 304 300 296 294 293 292 292 291 291 291 290 290 289 288 288 287 287 287 287 286 285 285
315 315 310 312 313 314 315 317 318 316 311 308 308 312 311 310 308 309 310 310 310 307 304 300 296 294 293 292 292 291 291 290 290 288 288 287 286 286 286 287 286 285 286 284
314 312 312 313 315 315 318 314 313 312 313 317 308 315 314 312 310 310 313 311 307 306 303 300 297 294 293 292 292 291 290 289 288 288 287 287 287 288 287 285 285 285 284 283
315 311 312 314 315 313 316 308 310 309 312 309 314 312 313 306 310 311 313 313 309 308 304 301 297 294 293 292 291 291 290 289 287 287 287 286 286 286 285 284 284 284 283 282
313 306 310 313 305 307 304 308 308 305 308 315 314 313 312 312 311 311 312 311 309 306 304 302 297 294 293 291 291 290 289 288 287 286 286 285 285 285 284 283 283 282 282 281
312 311 307 306 311 306 308 314 318 322 319 319 308 309 312 311 311 311 313 313 307 306 303 300 296 294 292 291 291 290 289 288 286 286 285 284 284 283 282 282 281 281 281 281
315 315 309 307 314 316 310 315 321 326 319 318 305 311 313 310 310 310 306 306 303 303 302 299 297 294 293 291 291 290 289 288 286 285 284 283 282 281 281 280 279 279 279 279
314 315 305 304 305 310 309 313 312 318 305 314 314 315 312 309 308 306 306 305 305 303 301 299 297 294 292 291 291 290 289 288 285 284 283 281 280 279 279 278 277 277 278 277
313 314 308 302 303 302 306 307 312 313 322 320 314 314 313 312 311 309 306 306 307 304 302 299 296 294 292 292 291 290 289 287 285 283 282 280 279 278 277 277 277 277 277 276
312 314 310 305 307 310 305 309 307 308 314 317 316 314 309 310 310 310 309 310 309 306 303 300 297 294 293 292 291 290 288 286 284 282 280 279 278 277 277 277 276 276 275 275
311 314 316 313 303 302 307 310 310 313 315 311 313 314 309 309 310 309 310 308 307 305 305 302 298 295 292 291 290 289 287 284 282 281 279 278 277 278 276 276 275 274 274 274
309 313 318 315 306 301 306 306 307 310 312 314 316 314 310 311 309 307 309 309 306 305 304 301 297 295 293 291 289 288 286 283 281 279 278 277 277 276 275 275 274 273 273 273
311 314 316 314 312 307 309 308 307 309 312 313 313 312 312 311 310 310 309 304 305 306 304 303 298 295 293 290 289 287 284 282 279 278 277 276 276 275 275 274 274 273 272 271
310 314 315 315 314 314 313 311 309 308 309 311 312 312 311 311 311 311 310 309 308 308 303 303 299 295 292 290 287 285 282 280 278 277 276 276 274 274 274 273 272 272 271 270
307 314 313 314 313 312 313 312 313 312 312 311 309 309 309 309 309 309 309 308 307 307 307 303 296 293 291 289 286 283 281 278 276 276 276 274 274 273 273 272 271 271 270 269
309 312 315 317 314 314 315 313 313 313 312 312 313 311 311 310 310 310 310 308 307 306 306 305 296 292 290 287 284 282 279 276 275 275 274 273 273 272 272 271 270 269 268 268
313 312 313 316 316 316 314 312 311 312 312 312 311 312 311 311 310 309 309 309 308 307 306 303 297 293 289 286 283 281 276 275 275 274 273 272 272 271 270 269 268 268 268 268
311 313 314 316 316 314 310 311 311 311 311 310 310 310 309 309 308 309 308 307 307 307 307 306 297 292 287 284 281 277 275 275 274 273 272 271 270 270 269 268 268 268 268 267
311 312 313 315 316 318 314 311 309 307 310 310 309 308 308 307 309 310 309 307 306 304 302 292 289 286 284 280 276 276 275 274 273 272 271 270 269 269 268 267 268 267 268 266
312 312 313 314 316 316 311 307 306 311 312 310 309 309 308 308 308 308 306 301 295 292 289 287 284 281 280 276 276 276 274 274 272 270 269 268 268 268 268 267 268 267 266 266
314 314 314 313 314 316 311 311 310 312 311 310 310 309 307 307 306 305 305 293 289 286 284 282 281 279 275 276 277 275 274 271 269 268 267 267 267 267 267 267 267 267 265 266
316 314 314 313 314 311 311 311 310 310 311 311 310 309 307 306 305 304 302 291 287 285 283 280 279 276 275 275 276 275 270 268 267 267 266 266 266 266 267 266 266 266 266 267
311 312 312 313 312 311 309 310 310 310 309 309 308 308 306 306 305 302 299 292 285 283 281 279 277 276 275 274 274 271 268 267 266 266 265 265 265 265 265 265 265 265 267 268
305 304 306 306 306 306 310 310 310 309 307 304 304 304 305 305 303 303 302 294 288 283 280 278 277 276 274 272 269 268 267 267 266 266 266 265 265 265 265 265 265 266 267 268
298 301 303 307 307 307 307 306 304 304 305 307 307 307 307 306 303 303 299 296 287 282 279 277 277 274 271 269 267 266 266 266 266 266 265 265 264 264 264 264 265 264 265 266

GFSCGP_925_thetae_009.txt.gz
Theta_e
316 317 317 318 318 319 318 318 317 317 318 316 317 317 317 317 317 317 316 316 315 315 315 309 307 305 302 299 298 297 295 295 294 294 294 293 293 293 292 291 290 289 288 288
316 316 317 316 316 317 317 318 317 318 318 314 316 316 316 317 317 316 315 315 315 315 313 309 306 303 300 298 297 296 295 295 294 294 293 293 293 292 292 291 290 289 288 288
317 316 314 316 317 317 316 317 318 318 319 314 314 316 316 316 314 314 313 313 313 314 314 309 306 302 300 297 297 296 295 294 294 293 292 291 290 289 289 290 289 289 288 287
316 316 316 315 315 315 317 317 318 318 318 319 314 318 317 316 316 314 313 313 314 312 312 309 305 302 299 298 297 295 295 294 293 292 291 290 290 291 291 291 290 288 287 286
314 316 314 315 315 316 317 312 315 316 317 319 317 318 317 311 313 313 313 315 316 314 311 308 305 301 299 297 296 295 294 293 293 291 290 290 290 290 291 289 288 287 287 286
313 310 313 315 310 312 310 312 312 312 315 319 317 318 317 316 313 313 314 314 315 312 310 307 304 301 299 297 296 295 294 293 292 291 290 290 290 290 289 288 287 287 286 285
316 314 312 310 313 310 311 316 318 323 323 322 317 316 317 316 313 313 313 314 314 311 310 307 304 301 299 297 295 295 294 293 291 290 289 289 289 289 288 288 287 286 286 285
316 317 314 310 314 317 313 316 321 326 320 320 313 317 315 315 314 312 312 311 311 310 309 307 305 301 299 297 295 294 294 293 291 290 289 288 288 287 287 286 285 284 284 283
314 315 309 310 310 314 314 314 315 321 321 321 316 317 317 315 313 312 311 310 310 309 308 307 304 301 299 297 295 294 294 293 291 289 289 288 286 286 285 284 283 283 282 281
314 315 314 305 305 307 310 311 315 316 324 321 317 318 317 315 313 312 311 311 312 310 308 307 305 301 299 297 295 294 294 292 291 289 288 287 285 284 283 283 282 281 281 280
313 315 313 307 309 312 309 311 310 310 317 319 318 316 312 314 313 313 313 312 313 312 310 307 304 301 299 297 295 294 294 292 291 288 287 285 284 283 282 281 280 280 279 279
312 315 316 314 312 309 311 312 313 315 315 314 315 316 313 313 312 311 311 312 312 312 311 309 306 302 299 297 296 295 293 292 291 288 286 284 283 281 280 280 279 279 278 278
311 314 317 315 311 306 309 311 311 313 313 315 318 316 313 313 313 312 311 311 311 309 309 310 307 303 301 298 296 295 293 292 290 287 285 283 281 280 279 279 279 278 277 276
311 317 315 315 315 313 312 311 311 311 314 314 314 314 313 313 313 313 312 312 312 310 310 310 308 305 302 299 296 294 293 291 288 285 283 281 280 279 279 278 277 277 276 275
311 314 314 314 314 314 312 313 313 311 311 312 312 312 312 312 312 313 313 312 310 310 310 308 307 307 302 298 296 294 292 290 286 283 282 280 279 279 278 277 276 275 274 274
311 315 314 315 314 313 313 312 313 313 313 313 313 313 312 311 311 311 311 311 310 310 309 308 307 304 301 297 295 292 291 288 284 281 280 280 278 277 277 276 275 274 273 273
310 313 315 316 315 315 316 315 314 313 313 314 315 314 314 314 313 313 313 312 311 310 309 306 305 304 299 296 293 291 289 285 282 280 280 278 277 276 275 275 274 273 272 272
314 312 314 318 317 318 315 313 313 314 314 315 314 313 313 314 313 312 312 312 310 309 307 306 305 304 298 295 291 289 286 282 280 280 278 276 276 275 274 273 272 272 272 271
313 315 317 317 318 316 315 315 314 315 316 314 313 313 313 312 311 311 311 310 309 309 308 307 307 305 297 292 289 285 282 279 279 279 276 275 274 273 272 272 271 271 271 271
312 313 315 317 318 320 315 313 313 313 315 313 312 312 311 311 312 311 310 307 305 304 304 304 299 295 292 289 286 282 279 279 279 277 275 274 273 273 271 271 271 270 270 270
314 313 315 316 317 316 314 312 310 315 316 313 311 310 310 310 310 310 308 305 305 303 297 294 292 290 289 285 282 280 279 279 278 276 274 273 272 272 271 270 270 269 269 269
315 317 315 314 316 317 312 312 314 313 312 312 312 311 310 309 309 307 307 306 301 298 290 289 287 286 283 281 280 280 279 278 275 273 272 271 270 270 270 270 269 268 268 268
316 310 310 313 315 313 310 310 307 309 311 311 310 307 308 308 308 306 305 304 297 295 289 286 285 282 279 279 280 279 278 274 272 271 270 269 269 269 268 268 267 267 268 270
302 304 306 305 306 305 305 305 306 307 304 302 303 304 305 307 307 305 304 302 296 290 288 284 282 280 279 279 280 278 273 272 271 269 268 267 267 267 267 267 267 269 269 270
297 296 297 297 296 298 299 299 300 300 300 300 300 301 301 302 302 304 304 304 302 293 286 283 281 280 279 278 278 273 271 271 270 269 268 267 267 267 267 268 268 269 269 270
293 293 294 294 296 296 296 296 293 293 294 295 294 294 295 297 300 301 303 304 304 295 286 283 281 280 278 277 274 271 270 270 270 269 268 268 267 268 267 267 266 267 268 268

GFSCGP_925_thetae_015.txt.gz
Theta_e
311 310 311 311 312 311 311 311 311 313 313 314 315 313 313 312 309 308 310 310 310 309 309 309 309 309 307 305 302 300 299 299 298 297 297 296 296 295 295 294 294 293 292 291
313 312 311 311 311 312 311 312 312 312 310 311 311 313 312 311 312 312 310 311 311 311 307 305 306 306 305 303 301 299 299 298 297 297 296 295 295 295 294 294 293 292 292 291
312 312 313 313 313 313 312 312 312 312 312 310 310 311 312 311 311 312 312 311 311 311 306 304 302 303 302 300 299 299 298 298 297 297 296 295 295 294 294 293 292 292 291 290
311 312 312 312 312 312 313 311 311 312 312 313 310 314 311 311 311 310 311 311 309 305 304 303 302 300 300 300 298 298 298 297 297 296 295 294 293 293 293 292 292 292 291 290
311 312 310 312 312 310 313 312 312 313 313 313 314 314 314 310 310 310 311 310 309 306 304 302 302 303 301 299 298 298 297 296 296 296 295 294 293 292 293 292 292 291 291 290
308 309 311 311 310 310 310 311 311 310 309 314 312 313 312 309 311 310 310 309 309 306 305 303 303 302 299 298 298 297 296 296 296 295 295 294 292 292 292 292 291 291 290 289
308 309 308 309 311 309 310 311 312 312 312 315 309 311 313 311 309 309 310 309 308 304 303 300 299 299 298 297 296 296 296 295 295 295 294 294 293 292 292 292 291 290 289 289
310 310 308 308 310 310 309 311 313 310 313 314 308 311 311 310 309 308 307 308 305 305 303 301 300 299 298 297 296 296 295 295 295 294 294 293 293 292 292 292 290 290 290 290
310 310 309 308 309 310 310 311 310 313 297 309 313 310 310 309 308 307 306 305 305 304 302 301 298 298 297 297 296 296 295 295 294 294 293 293 292 292 291 291 290 290 290 290
310 311 310 307 307 307 309 308 312 311 311 309 313 310 312 311 312 311 306 304 304 304 303 301 299 298 297 297 297 296 296 295 294 293 293 292 292 292 291 290 290 290 290 288
309 311 312 305 307 309 307 309 309 310 311 315 314 313 307 309 310 310 306 304 303 303 302 302 301 300 299 298 297 296 296 295 294 293 293 292 291 291 291 290 290 289 289 287
311 312 314 311 307 306 308 310 310 312 313 310 312 313 312 308 306 307 306 305 305 305 304 301 300 300 297 297 296 296 295 294 295 293 292 291 290 290 290 289 289 289 288 286
314 313 318 316 312 306 308 307 308 309 310 313 315 315 312 311 310 306 304 303 304 304 304 302 300 299 299 297 296 296 295 295 294 293 292 290 289 290 289 288 288 288 287 285
313 313 316 319 316 313 313 311 309 311 313 314 314 313 311 311 311 310 310 310 310 310 303 303 304 301 298 298 297 296 295 295 294 292 290 289 288 288 288 287 287 286 285 284
314 314 314 315 315 315 315 315 314 314 313 316 315 314 312 310 310 310 309 309 309 308 304 303 303 300 299 298 297 296 295 294 293 291 290 289 288 287 286 285 285 285 284 283
312 316 316 316 314 314 315 314 314 314 314 314 313 314 314 313 313 313 312 311 310 308 308 305 302 301 298 297 298 296 295 293 292 291 289 288 286 285 284 283 284 283 282 281
314 313 316 318 315 314 315 315 315 314 313 313 314 312 312 312 312 313 312 311 310 310 309 304 302 300 297 297 298 296 295 293 291 290 288 286 284 282 281 282 282 280 280 279
314 312 313 318 317 318 313 311 312 313 312 312 312 312 312 312 312 311 311 309 309 309 306 303 301 300 299 301 299 298 295 291 290 289 286 284 282 281 280 280 279 278 278 277
312 314 316 317 318 315 314 311 311 312 313 311 311 311 307 304 309 310 304 302 302 301 301 301 300 300 301 301 300 295 290 289 288 287 285 283 282 280 279 278 278 277 276 276
311 313 316 317 319 319 314 310 308 310 314 301 300 300 300 300 303 303 299 301 300 299 298 296 296 296 296 296 295 291 288 287 286 285 284 282 281 280 278 278 277 276 276 275
305 309 312 314 316 312 302 300 303 313 301 297 299 298 297 298 298 298 297 297 296 296 296 298 296 291 293 294 291 288 286 285 286 285 283 281 280 279 278 277 276 275 275 274
302 301 301 302 308 311 298 297 294 294 295 298 293 293 293 293 292 293 293 292 293 293 294 296 292 294 293 291 290 286 284 285 285 283 281 279 278 277 276 275 274 274 274 273
301 294 295 297 295 290 296 291 293 295 294 293 292 290 290 290 291 291 291 291 292 292 291 293 292 293 293 289 288 286 286 285 283 280 278 277 277 276 275 274 273 273 272 272
290 290 291 289 289 289 289 290 290 290 289 289 289 288 288 289 290 290 290 291 291 291 291 293 293 292 290 290 288 287 286 285 282 278 276 275 274 274 273 273 272 272 272 272
289 289 287 288 288 288 288 289 288 287 287 286 284 284 284 286 287 287 287 287 289 290 290 291 291 292 291 292 289 288 286 282 279 278 275 274 274 272 272 272 272 272 272 272
289 289 288 288 288 286 287 285 285 282 282 281 281 282 282 281 281 281 282 283 284 285 286 288 289 291 290 290 288 287 284 281 278 276 274 274 273 272 272 271 271 272 272 273

GFSCGP_925_thetae_021.txt.gz
Theta_e
308 307 308 309 308 309 308 307 308 308 309 311 310 311 311 311 311 307 307 309 309 309 310 309 309 310 306 306 305 304 302 301 299 299 298 298 298 298 298 298 298 297 295 294
309 308 309 308 307 308 309 310 309 310 309 307 308 309 309 308 310 311 311 309 309 309 308 307 306 306 307 307 306 303 302 300 299 299 298 298 297 297 298 298 298 297 296 294
310 310 309 307 308 309 308 309 310 310 308 306 307 310 309 307 308 309 309 309 309 309 309 308 303 303 305 305 304 303 302 301 299 299 298 298 297 296 296 296 297 297 296 294
308 308 309 308 308 308 310 308 309 310 310 312 309 312 309 309 309 307 309 309 308 308 308 307 305 300 303 305 305 303 301 300 299 299 298 297 297 296 295 295 296 296 295 294
307 309 309 309 310 308 310 309 308 308 307 309 309 309 311 308 307 308 308 309 308 308 306 307 305 302 306 305 304 303 300 299 298 298 298 297 297 296 297 295 295 295 295 294
307 306 307 308 307 306 308 310 309 306 307 311 310 310 311 308 308 309 308 307 307 308 306 303 302 303 303 303 302 300 299 297 298 297 297 297 296 296 296 295 294 294 294 294
305 306 306 307 309 308 309 309 310 310 310 313 307 309 312 310 307 308 309 307 305 303 302 301 300 299 299 298 298 297 296 295 296 297 297 296 296 296 296 295 294 292 292 292
307 312 306 306 308 308 308 308 311 309 311 313 307 311 314 308 307 306 304 304 303 302 302 300 300 299 298 297 296 296 295 295 296 296 295 296 296 296 294 295 294 294 293 292
306 308 306 305 307 307 306 308 308 310 298 305 311 310 312 307 307 308 307 305 303 301 300 299 298 297 298 297 295 295 295 295 296 295 295 295 295 295 294 294 294 294 294 293
308 311 307 305 306 306 306 306 310 308 313 309 311 310 312 311 312 311 307 305 302 301 300 300 300 298 298 298 298 297 296 297 296 295 295 294 294 294 294 294 294 293 293 292
311 313 315 311 309 310 306 307 307 308 312 316 317 315 314 312 307 306 303 302 302 303 303 301 300 300 299 299 299 298 297 296 296 296 295 294 294 294 294 293 293 293 293 292
310 315 319 316 310 305 307 308 308 312 313 311 314 315 313 313 311 310 311 309 304 302 302 301 300 301 301 299 300 299 298 297 297 296 295 295 294 293 293 293 293 292 292 291
312 314 319 317 313 310 313 313 312 312 312 314 314 314 311 311 311 311 310 306 305 304 304 303 300 299 299 301 302 300 299 299 296 295 295 294 293 292 292 292 291 291 290 291
314 316 318 318 315 315 313 312 312 314 317 316 315 314 313 312 311 311 311 310 309 304 302 299 299 298 298 298 299 299 299 299 297 296 295 293 292 293 292 291 290 290 289 289
310 315 315 313 313 312 312 313 315 316 315 316 316 315 314 313 311 306 301 301 300 300 299 298 297 296 295 294 294 295 296 297 297 298 294 293 292 291 291 290 290 289 289 288
303 305 306 307 307 306 310 312 313 312 311 313 314 314 301 297 294 293 293 293 293 293 294 294 293 294 294 294 293 293 294 294 295 295 294 295 293 291 290 289 289 288 287 286
300 302 302 304 302 301 301 302 303 305 305 304 307 297 295 293 292 291 292 291 291 292 292 293 292 292 292 293 293 292 292 292 292 292 293 293 292 291 289 289 288 286 285 284
297 297 297 299 296 295 297 298 296 299 296 296 295 293 294 292 291 290 293 290 290 292 292 292 291 291 291 291 291 291 290 290 290 290 290 291 291 290 288 287 286 285 284 283
295 297 290 292 291 297 299 293 291 291 295 293 292 291 291 291 290 289 289 290 290 290 290 290 290 290 291 290 290 290 289 289 289 289 289 289 290 289 287 285 284 283 283 281
293 296 298 297 296 296 295 291 292 290 295 292 292 291 291 290 289 288 289 289 289 289 289 289 289 289 289 289 289 289 289 289 289 289 287 288 289 287 285 284 283 282 282 281
282 279 285 285 295 294 291 290 288 291 289 292 291 291 291 289 289 289 288 288 287 287 287 287 287 287 287 287 288 288 289 289 289 290 289 286 287 286 285 283 282 281 280 280
286 282 280 279 281 288 289 288 288 287 290 291 290 288 287 287 286 285 285 285 284 283 283 283 283 283 284 284 285 286 288 288 289 289 289 286 285 284 283 282 281 280 279 278
287 287 285 287 286 290 289 289 289 289 290 289 287 286 285 284 283 283 282 282 281 281 281 281 281 282 281 280 281 283 283 283 285 286 286 286 284 282 282 281 279 278 278 278
289 288 290 287 289 289 288 288 287 290 287 286 285 283 283 282 282 282 281 280 280 279 279 279 278 277 277 278 277 277 277 279 282 285 285 284 283 281 280 280 279 278 278 278
288 287 287 288 288 288 288 288 287 286 285 283 282 281 281 281 280 279 278 278 278 278 277 277 275 275 275 274 274 274 274 275 275 278 281 283 281 280 279 279 278 278 278 278
289 289 288 288 289 288 288 288 284 284 282 280 279 279 280 278 278 277 276 276 276 275 274 274 273 272 271 270 270 270 270 271 272 274 275 280 281 280 278 278 277 279 279 279

GFSCGP_925_thetae_024.txt.gz
Theta_e
308 307 308 309 307 308 307 305 305 306 307 309 308 308 308 309 309 309 309 309 307 308 309 309 309 309 308 306 306 305 304 303 301 300 299 298 300 300 300 298 298 299 298 297
307 307 307 307 306 307 307 308 307 308 307 305 306 308 308 307 308 309 309 309 309 309 307 307 306 307 307 308 306 304 303 301 301 300 299 299 298 298 300 299 298 298 298 297
309 309 307 307 307 308 306 307 308 308 307 305 305 309 307 307 306 308 308 308 307 307 307 307 304 303 305 305 305 304 303 302 301 300 298 298 298 298 297 296 297 298 298 297
307 307 308 307 307 307 309 306 307 308 308 309 307 310 309 311 310 306 307 306 304 304 304 303 303 302 304 306 306 304 303 302 300 299 297 297 298 297 297 296 297 298 298 297
308 308 308 308 308 306 308 308 307 307 307 307 308 308 311 308 308 307 306 305 304 303 303 303 302 303 305 306 305 305 303 301 299 299 298 297 298 298 298 296 295 295 297 297
306 305 306 307 306 306 307 309 307 304 306 310 308 309 309 307 309 309 308 306 305 303 302 301 301 301 302 303 302 301 301 300 299 298 298 297 297 297 297 295 295 294 295 296
305 306 306 306 308 306 307 307 309 309 310 312 307 308 311 309 307 308 308 306 304 302 300 299 301 300 300 301 300 298 298 298 297 297 297 296 297 297 296 296 294 293 293 294
307 316 306 305 307 307 306 307 311 312 310 314 307 309 311 307 307 305 305 304 303 301 299 301 300 298 299 299 299 297 296 296 297 297 296 296 296 296 296 296 295 294 295 295
307 309 305 304 306 307 306 308 307 311 300 306 312 311 309 306 306 306 307 306 302 301 300 301 300 300 300 299 298 296 296 296 296 296 297 296 296 296 296 296 295 295 295 295
309 315 308 305 305 305 306 305 310 309 315 314 313 311 313 311 311 308 304 302 301 300 300 300 299 300 302 300 300 298 297 297 297 296 296 295 296 296 295 295 295 295 295 295
313 313 314 313 308 309 306 307 307 307 312 318 319 316 313 310 308 307 305 305 304 304 303 300 299 297 297 297 298 297 296 295 295 295 295 294 294 294 294 294 295 295 295 294
313 318 318 316 311 306 307 311 310 315 314 310 313 315 312 311 310 307 306 302 300 298 297 296 296 295 294 294 294 295 294 295 296 296 295 294 293 294 294 294 294 294 293 293
312 317 319 315 311 308 311 310 310 312 313 317 318 316 311 311 310 298 298 297 297 295 294 294 293 293 294 294 293 292 293 294 294 294 294 294 294 293 293 293 293 292 291 291
313 316 317 319 315 313 313 313 312 312 313 316 315 316 314 306 300 295 294 292 293 292 292 292 292 292 292 292 292 292 292 292 292 292 293 292 293 293 293 292 292 291 291 290
308 312 313 311 308 308 309 309 307 308 308 310 309 311 309 296 293 293 294 291 291 291 291 290 291 291 290 291 291 291 291 290 290 290 291 291 292 292 293 292 292 291 290 289
301 302 303 303 302 302 303 302 302 302 301 305 307 306 294 292 292 291 293 292 290 290 291 291 290 290 289 289 290 289 289 289 289 289 289 290 291 291 291 291 290 290 289 288
297 297 294 299 298 295 294 294 295 295 297 298 300 294 292 291 291 290 291 292 291 289 289 290 289 289 289 289 289 289 289 288 288 289 289 289 288 289 290 291 290 289 288 287
294 294 290 295 287 289 293 293 292 296 294 294 293 291 291 290 290 289 289 290 288 288 289 288 288 288 288 288 288 287 287 287 288 288 288 288 287 287 287 289 288 288 287 287
293 294 287 287 281 292 295 290 289 290 292 290 291 292 292 290 289 287 288 289 288 287 288 287 287 286 286 286 286 285 285 285 286 287 288 287 286 286 286 286 287 286 285 285
292 293 294 282 296 291 292 289 290 289 285 287 287 288 287 289 285 286 286 288 287 287 287 286 286 285 284 284 283 283 283 283 284 286 286 286 285 285 285 285 285 285 284 284
279 277 288 288 288 286 289 288 288 285 287 285 287 288 289 289 286 286 286 284 285 284 284 283 282 282 282 282 282 282 281 281 282 283 281 281 283 284 285 286 284 283 283 282
287 281 278 274 279 283 286 287 287 287 288 287 289 289 288 287 286 286 284 283 282 282 281 281 280 280 280 280 280 279 279 279 279 278 278 279 282 285 284 284 284 282 281 280
286 286 282 283 283 288 285 288 290 289 288 288 288 288 286 286 284 283 282 282 281 281 280 279 278 278 278 278 277 277 277 276 275 275 276 277 276 278 283 282 281 280 280 279
288 288 288 289 289 289 289 289 288 287 287 287 287 284 284 283 282 282 282 281 280 279 278 278 277 277 276 276 275 274 274 273 272 272 272 273 274 276 280 281 281 280 280 279
289 287 287 288 289 288 288 288 288 287 287 285 283 282 281 280 280 280 279 278 278 277 276 276 275 274 274 273 272 271 270 269 269 269 270 270 272 273 276 280 281 280 280 281
289 289 289 288 289 288 288 288 286 285 284 281 280 279 279 279 278 277 276 275 275 275 274 273 272 271 271 270 269 268 267 267 267 267 267 269 270 271 273 276 280 280 281 281

GFSCGP_925_thetae_027.txt.gz
Theta_e
307 307 308 309 307 306 306 305 305 304 305 307 308 308 307 307 306 307 308 308 307 307 308 307 307 308 308 308 307 306 305 304 303 303 303 302 303 305 305 305 304 303 299 298
306 307 307 306 305 306 306 308 308 307 306 304 306 308 308 308 308 309 309 309 308 306 306 305 306 306 306 307 306 305 304 303 302 302 302 302 301 300 300 300 301 301 299 298
308 309 306 306 306 307 305 306 307 307 305 305 304 308 307 307 306 307 307 307 306 306 306 305 303 304 305 306 306 305 304 302 301 301 300 300 300 299 298 298 298 299 299 298
306 306 307 306 306 306 309 306 306 306 307 309 306 310 310 311 310 308 306 305 304 304 303 303 302 302 302 304 304 304 304 302 300 300 299 299 300 298 298 298 297 297 298 297
309 306 307 308 308 305 308 307 307 306 306 307 307 308 307 307 308 308 308 306 305 305 304 302 302 303 303 303 302 302 301 301 300 299 298 298 298 298 298 298 296 297 297 296
305 304 305 306 306 305 306 308 305 304 306 309 308 309 309 308 310 309 309 305 304 303 301 301 302 303 302 301 301 300 299 299 299 299 298 297 297 298 297 297 296 296 295 295
305 305 305 305 307 305 307 307 310 311 310 314 306 307 310 309 306 308 307 306 302 301 300 301 301 300 299 297 298 297 298 298 297 297 298 297 297 298 298 297 296 295 294 293
306 316 305 304 307 308 306 308 313 319 312 319 306 310 310 306 306 304 303 302 301 301 300 299 298 297 296 295 295 295 295 295 296 296 296 297 297 297 297 296 296 296 295 295
316 317 304 303 305 306 306 309 308 312 303 306 311 311 309 305 305 304 302 302 301 299 298 296 295 294 294 293 293 293 294 294 294 294 295 296 296 296 296 296 295 296 296 296
310 315 310 306 305 305 306 306 310 309 317 317 314 312 313 311 311 304 302 301 300 298 296 295 294 294 293 292 292 292 292 292 292 293 293 293 294 294 295 295 295 295 296 295
311 315 315 313 307 308 306 307 307 307 316 320 319 316 309 307 301 300 299 298 296 294 293 293 292 292 292 292 292 291 291 291 291 291 291 292 293 293 293 294 294 294 294 295
314 318 318 317 312 306 307 309 309 315 314 311 314 315 312 302 299 296 295 293 293 292 291 291 291 291 290 291 291 291 290 290 290 290 290 290 292 291 291 293 294 293 293 293
313 316 318 315 310 309 310 310 310 313 314 318 319 316 309 307 299 294 293 292 291 291 291 290 290 290 290 289 289 290 289 289 289 288 289 289 290 291 289 289 291 292 293 292
311 313 316 317 314 312 314 313 311 312 312 313 312 311 307 306 299 293 294 291 291 290 290 290 290 290 289 289 289 289 289 288 288 288 288 288 289 289 290 289 289 290 291 291
308 311 310 311 310 305 305 305 305 305 305 307 306 305 305 298 293 292 291 292 292 292 289 290 290 289 289 288 288 288 288 287 287 287 287 288 288 288 288 289 289 288 289 289
301 303 302 298 301 301 300 299 300 301 300 300 301 301 293 292 291 290 289 290 290 290 288 289 289 288 288 287 286 287 286 285 286 286 287 287 288 287 286 286 287 289 288 287
297 299 297 301 299 293 296 294 295 294 295 297 297 293 288 289 290 289 288 288 289 288 288 288 288 287 286 286 285 285 284 284 284 284 285 286 287 286 285 284 285 287 287 287
295 295 287 292 284 286 293 291 294 296 295 291 288 287 289 289 289 289 288 288 288 287 288 287 286 286 285 284 284 283 283 283 282 282 283 284 285 284 283 283 284 285 286 286
293 293 284 285 281 289 292 290 290 290 290 288 288 289 290 290 288 287 287 287 287 286 287 286 286 286 285 284 283 282 282 282 281 281 281 282 282 280 280 282 284 284 284 284
292 293 290 274 285 284 290 287 289 286 285 281 283 285 286 289 286 286 285 285 286 286 285 284 284 283 282 281 281 280 281 281 280 279 279 280 278 278 279 281 284 283 283 283
279 280 292 292 291 288 288 288 287 285 287 285 283 286 287 288 288 287 285 285 284 284 283 283 282 281 280 280 279 279 279 278 278 278 277 276 275 276 277 279 278 279 282 282
286 280 276 272 278 285 284 286 287 287 288 287 286 287 288 288 288 287 286 285 283 282 282 281 280 280 279 278 278 277 277 277 276 275 274 274 273 273 274 274 275 278 282 281
287 286 284 284 283 286 285 287 288 288 288 288 287 287 286 287 287 286 283 282 281 281 281 280 279 278 277 277 277 276 275 275 274 272 272 271 271 271 271 272 273 276 280 281
288 287 287 289 288 287 288 288 288 288 288 288 286 285 285 285 284 282 281 281 280 279 278 277 277 276 276 275 275 274 273 272 270 269 269 268 268 269 269 270 272 274 277 281
289 286 287 288 288 288 288 288 288 288 287 285 282 283 282 280 280 280 279 278 277 276 275 274 274 273 273 272 271 270 269 268 267 267 266 266 266 267 268 269 270 272 274 279
289 289 289 289 289 288 288 288 284 285 283 279 279 279 278 277 277 276 275 274 273 273 271 270 270 269 268 267 267 266 265 265 264 264 264 264 265 265 266 267 268 269 272 275

GFSCGP_925_thetae_030.txt.gz
Theta_e
312 313 314 314 314 314 312 312 313 313 313 311 312 313 313 312 312 313 313 313 314 313 312 310 310 309 309 308 308 308 307 306 308 309 311 312 311 311 310 310 309 307 306 305
311 313 314 312 310 311 312 313 314 314 313 310 312 312 312 312 313 313 313 313 314 313 312 311 310 309 308 307 307 306 306 305 305 307 308 309 308 308 308 308 307 306 304 303
314 315 311 311 311 311 313 312 313 314 312 311 311 314 313 314 312 312 312 312 311 310 311 311 309 307 306 305 305 304 304 304 303 304 305 306 304 305 305 305 304 303 302 302
312 311 310 310 311 312 314 313 311 311 311 313 311 315 316 316 316 314 313 310 310 311 309 308 307 305 303 302 302 302 302 302 302 302 303 304 303 304 303 302 302 302 300 300
314 310 310 311 312 310 312 309 309 310 311 311 313 313 319 313 313 313 311 310 309 307 306 305 303 301 300 299 299 299 300 301 300 300 301 302 302 303 303 302 301 300 299 298
310 306 308 310 308 308 308 310 311 309 311 317 318 315 316 315 313 312 310 307 306 305 303 301 299 298 297 297 297 297 298 297 298 299 300 300 300 301 301 300 300 299 298 297
317 317 308 306 309 307 309 311 317 322 321 323 311 315 315 314 312 309 307 305 304 302 301 299 298 297 296 295 295 295 296 295 296 296 297 298 299 299 300 299 299 299 298 297
319 320 310 307 310 314 311 313 323 328 326 326 320 321 319 313 307 306 306 305 303 301 300 298 297 296 296 295 294 294 294 294 294 294 295 295 296 297 298 298 298 298 298 298
318 318 309 305 306 309 310 312 313 315 318 319 319 318 313 309 308 306 305 304 302 299 298 297 296 294 294 294 294 293 293 292 292 293 293 293 294 294 295 296 296 297 297 297
316 321 316 309 306 307 310 311 315 313 321 322 318 317 316 311 309 307 305 302 299 298 297 296 295 293 293 293 293 292 292 291 291 291 291 292 292 293 293 293 294 294 295 295
313 316 317 313 313 314 309 309 309 313 318 322 322 318 313 311 306 305 301 299 297 296 295 295 294 293 292 291 291 291 290 290 290 290 290 290 291 291 292 292 292 292 292 293
313 316 318 315 314 311 310 313 313 316 317 316 317 317 313 306 302 300 297 295 295 294 294 293 292 291 291 290 290 290 290 289 288 288 289 289 289 290 290 291 291 291 291 291
313 318 319 319 315 311 313 314 312 314 315 318 320 318 307 303 298 296 295 293 293 293 291 292 291 291 290 289 289 288 288 288 287 287 287 287 288 288 288 288 288 289 290 290
310 312 315 316 315 313 316 313 310 311 314 315 316 313 309 307 305 297 295 292 293 292 289 290 290 290 289 288 287 287 287 286 286 286 286 286 286 287 287 286 286 286 287 289
308 311 310 309 310 309 309 308 306 306 307 308 308 307 305 303 296 293 290 290 292 292 289 289 289 289 288 287 286 286 286 285 285 285 285 285 285 286 286 285 284 284 285 286
300 306 304 303 303 303 304 301 301 301 301 300 300 302 300 293 292 292 291 289 290 290 289 289 289 288 287 286 286 285 285 285 284 284 284 283 283 284 284 283 282 283 284 285
299 301 302 303 301 298 299 299 299 299 298 298 297 297 293 292 292 291 290 290 290 290 289 289 289 288 287 287 286 285 284 284 283 283 282 282 282 283 283 281 280 281 283 284
296 298 299 300 293 298 297 294 295 295 297 296 295 293 293 292 290 291 291 290 290 290 289 289 288 287 287 286 285 284 283 283 282 282 282 281 281 281 281 279 279 280 282 284
295 295 295 295 296 294 293 293 293 294 294 295 295 293 291 291 291 291 290 290 290 290 289 288 287 286 285 284 284 283 282 282 281 282 281 280 280 279 278 277 278 279 281 282
292 294 294 286 293 293 293 291 289 289 293 290 290 291 290 290 290 290 291 290 289 289 288 287 285 284 284 283 281 281 280 280 280 281 280 279 278 278 276 276 276 277 278 278
291 292 294 295 294 293 293 290 290 292 293 291 291 290 290 290 291 291 291 290 289 288 286 284 284 283 282 281 280 279 279 279 279 278 278 277 277 276 275 274 274 274 274 275
290 291 291 287 291 292 289 289 290 292 291 291 291 291 291 290 290 290 289 289 289 286 284 283 282 281 280 279 278 278 277 277 277 275 275 274 274 273 272 272 272 272 272 274
290 291 291 289 291 290 289 291 291 291 291 291 291 291 290 289 289 289 288 286 284 283 281 280 279 278 277 276 276 275 275 274 273 272 271 271 270 270 269 269 270 270 271 272
290 290 290 290 290 290 291 291 291 291 291 291 291 290 288 287 287 284 283 282 281 279 278 276 275 275 274 273 272 271 270 269 268 268 268 267 267 267 267 267 268 269 270 271
291 290 290 290 290 290 290 291 291 290 290 289 285 284 284 282 282 281 279 278 277 275 274 273 272 271 270 269 268 266 266 265 264 264 264 264 264 265 265 265 266 267 268 269
291 291 290 291 290 290 290 290 290 289 288 283 282 281 279 278 277 276 275 274 273 272 270 269 268 267 266 265 264 264 263 263 262 263 263 263 263 263 264 264 265 265 267 268

GFSCGP_925_thetae_033.txt.gz
Theta_e
314 314 315 316 317 316 316 316 317 316 316 316 317 316 315 315 315 315 316 316 315 315 313 311 310 310 310 310 310 310 310 310 310 313 314 316 317 317 317 317 316 315 313 310
314 315 316 316 316 314 315 315 316 316 317 316 316 315 314 314 316 316 316 315 315 313 312 310 308 307 306 306 306 307 307 308 308 310 311 313 314 315 315 314 314 313 312 309
317 319 317 314 315 315 316 316 316 316 315 314 314 315 316 317 319 315 313 313 312 311 309 308 305 304 303 303 303 304 305 305 306 306 308 309 310 308 309 310 311 311 310 308
317 313 312 313 314 314 315 315 314 313 313 315 313 316 317 319 319 313 312 310 309 308 306 305 303 301 301 301 301 302 302 303 302 303 305 306 307 306 306 306 307 308 307 306
315 312 312 313 313 313 314 312 312 312 313 314 315 316 319 320 316 313 311 309 307 305 304 303 301 300 299 299 299 300 299 300 301 302 302 303 304 304 304 305 304 303 304 303
313 310 311 314 312 311 311 311 313 314 314 320 320 320 320 316 314 311 309 307 306 304 303 302 300 299 298 297 297 297 297 297 298 299 299 301 302 302 302 302 302 302 302 302
317 317 319 311 314 312 310 313 323 325 323 324 316 322 319 316 311 310 308 307 305 303 302 300 300 299 298 297 296 296 296 295 295 296 297 297 298 299 300 300 301 301 301 300
320 318 317 311 313 315 314 316 323 328 326 326 321 322 321 313 309 309 308 306 304 302 301 299 298 297 297 296 295 295 295 294 293 294 294 295 296 296 297 298 298 299 299 299
318 318 312 309 309 311 316 316 316 324 322 323 318 317 317 311 310 309 307 305 302 301 299 299 297 296 295 294 294 293 293 292 292 292 292 293 293 294 294 295 295 296 296 297
317 320 318 314 308 309 309 309 316 316 322 321 317 317 317 313 311 309 306 303 301 299 298 297 296 295 294 293 293 292 292 291 290 290 291 291 291 292 292 293 293 293 293 294
317 318 318 314 314 315 312 311 310 312 317 321 321 317 314 312 311 308 303 300 299 298 297 296 295 294 293 292 291 291 290 289 289 289 289 289 289 290 290 289 289 290 291 292
314 316 318 315 312 313 313 314 314 316 316 316 317 317 315 308 306 302 301 299 297 295 294 293 293 292 291 290 289 289 289 288 287 287 288 288 287 288 288 288 287 286 286 287
314 315 316 313 308 312 315 314 314 316 315 318 321 320 311 308 303 299 299 296 294 294 291 291 291 291 290 289 288 288 287 287 287 286 286 286 286 287 287 287 286 285 285 285
311 313 315 315 309 310 313 311 313 313 314 313 313 313 310 308 308 307 299 296 294 293 291 290 290 290 289 289 288 287 287 287 286 285 285 285 285 285 285 286 285 283 283 284
308 310 308 309 309 308 308 307 308 307 308 309 308 308 306 305 302 297 293 292 292 293 292 290 289 289 289 288 288 287 286 286 286 285 285 284 284 283 283 284 283 282 282 283
303 304 304 305 303 303 304 304 304 304 304 303 303 304 303 298 296 296 295 292 291 291 291 290 290 289 289 288 288 287 286 286 285 284 284 284 283 283 283 283 283 281 281 282
301 301 302 302 300 300 301 300 300 300 300 301 301 300 296 295 293 292 292 291 291 290 290 290 290 289 289 288 288 287 287 286 285 284 283 283 283 282 282 281 281 281 280 280
299 300 301 301 299 299 298 297 295 295 296 297 298 296 293 291 291 292 292 291 291 291 290 290 290 289 288 288 287 286 286 285 284 283 283 282 282 282 281 281 280 279 279 280
295 296 298 298 298 297 295 294 294 294 295 297 298 293 291 291 290 291 292 292 291 291 290 290 289 288 287 286 285 283 283 282 282 282 281 281 281 281 280 279 279 278 278 278
292 294 297 295 295 294 293 293 291 291 294 296 295 293 291 291 290 291 291 291 291 291 290 290 288 286 285 284 282 281 281 281 280 280 280 280 279 279 279 278 278 277 276 276
294 294 296 296 297 294 293 293 291 293 294 294 293 292 291 291 292 292 291 291 290 290 290 288 286 284 283 281 280 279 279 279 278 277 277 276 276 276 276 275 275 275 274 274
291 293 294 293 294 293 293 291 292 293 293 294 292 292 292 292 291 291 290 290 290 288 286 284 282 281 279 278 277 276 276 275 274 273 272 271 271 270 271 271 271 271 271 271
291 292 292 292 292 292 292 293 293 292 293 292 292 292 291 291 290 290 290 289 287 284 282 280 278 277 276 275 274 273 272 271 269 268 267 266 266 266 266 267 267 268 268 269
291 292 292 292 291 291 291 292 291 292 292 292 292 291 291 290 289 288 285 284 283 280 279 277 275 274 273 272 271 270 269 267 266 265 264 264 264 264 264 265 265 266 266 267
293 292 292 292 291 291 291 291 291 291 291 291 291 288 288 287 285 284 282 280 279 277 275 274 272 271 271 269 268 267 266 265 264 264 263 263 264 264 264 264 264 265 265 266
292 292 292 292 291 291 291 291 291 291 290 290 290 285 282 281 281 279 278 276 274 273 272 270 270 269 267 267 266 265 264 264 263 263 263 263 263 264 264 264 264 265 266 267

GFSCGP_925_thetae_036.txt.gz
Theta_e
313 313 314 314 314 315 315 314 314 314 315 314 315 315 313 313 313 313 312 311 309 309 307 305 304 304 304 304 305 306 308 310 311 314 315 318 319 319 320 320 320 319 319 318
314 314 315 315 315 314 314 314 313 315 315 313 313 313 313 313 312 312 312 310 309 307 305 303 302 301 301 302 302 303 304 305 307 309 312 313 315 316 317 317 317 317 316 315
316 317 316 316 315 315 315 315 315 314 313 312 311 312 313 314 313 310 309 307 306 304 303 301 300 300 299 300 300 300 301 302 303 305 307 308 310 310 310 310 312 313 314 313
318 312 313 313 314 314 314 314 313 313 312 312 310 312 314 314 310 309 307 305 303 302 301 300 299 298 298 298 298 298 298 299 301 302 304 304 305 305 305 305 306 307 310 311
316 312 312 313 313 313 314 311 312 311 312 312 313 313 315 314 311 309 306 305 302 301 300 299 298 298 297 297 296 296 296 297 298 299 300 301 301 302 302 302 303 303 304 305
312 310 311 315 313 312 311 310 310 310 312 316 319 319 317 312 311 308 306 304 303 301 299 299 299 298 297 296 296 295 294 295 295 296 297 297 298 299 299 300 301 301 301 301
315 312 312 314 315 311 310 311 318 321 317 320 318 319 319 311 309 308 306 304 302 300 298 298 297 297 296 295 295 294 294 293 293 294 294 294 295 296 296 296 297 297 299 299
320 318 314 310 314 313 312 315 320 322 322 320 316 318 319 309 307 306 305 302 301 299 298 296 296 296 295 294 293 293 292 291 292 292 292 292 293 293 293 293 294 294 295 296
316 317 309 309 309 310 314 316 313 321 318 322 318 315 311 309 308 306 304 301 299 297 297 296 295 295 294 294 293 292 291 290 289 290 290 290 290 291 290 290 289 288 291 292
317 320 318 311 308 308 309 308 316 316 319 312 314 313 314 312 309 307 303 300 298 297 295 295 294 293 293 292 291 291 290 289 288 289 288 288 287 288 288 287 286 285 286 286
317 318 316 315 313 315 310 311 310 311 314 316 315 312 309 310 308 304 300 299 298 296 295 294 293 292 291 290 289 289 288 287 287 287 287 287 286 286 286 285 285 285 284 284
315 316 315 314 311 310 310 312 312 315 316 312 314 314 305 303 301 301 300 298 296 295 291 291 291 291 290 289 288 288 287 287 286 286 286 286 285 285 286 286 285 284 284 284
313 313 312 309 307 311 313 312 312 312 312 315 317 315 308 302 301 300 302 299 295 294 290 290 290 290 289 289 288 287 287 286 286 286 285 285 284 284 284 284 284 284 283 283
310 313 308 307 306 308 306 307 307 308 312 309 309 308 306 304 303 301 303 300 293 293 291 289 289 289 289 288 288 287 287 286 286 285 285 284 284 284 283 283 283 283 283 282
308 308 307 308 307 305 304 304 306 306 305 305 303 302 303 303 299 295 292 291 292 292 292 289 288 289 289 289 288 288 287 287 286 286 285 284 284 284 283 283 283 282 282 282
303 297 299 295 301 302 303 302 301 301 302 301 301 301 301 295 295 295 294 291 291 290 290 290 288 289 289 289 288 288 288 287 287 286 285 284 283 283 282 282 282 282 281 281
300 297 292 292 299 297 293 297 299 299 299 298 298 298 293 294 292 291 290 291 290 290 290 289 288 288 289 289 288 288 287 287 286 286 284 283 283 282 281 281 281 281 280 280
298 295 294 290 290 291 294 295 294 293 293 292 292 291 290 290 290 290 291 290 289 290 289 289 289 289 289 287 287 286 285 284 283 283 282 282 282 281 281 280 280 280 279 279
296 297 293 290 289 293 294 293 293 293 292 293 293 293 291 290 289 288 290 290 290 289 289 289 289 288 287 286 284 283 282 282 281 281 280 280 280 280 279 279 279 278 278 277
291 293 294 286 289 286 291 290 291 291 289 286 287 287 288 290 287 287 290 290 289 290 290 289 287 286 284 283 282 280 279 279 278 278 277 277 276 276 275 275 274 274 274 275
286 286 291 293 294 291 292 290 290 288 290 290 288 289 289 288 288 288 289 289 290 289 287 285 284 282 282 280 278 277 276 276 275 274 273 272 271 270 269 269 269 269 269 270
289 287 286 285 286 290 291 290 290 291 293 291 291 289 288 288 288 288 287 287 287 285 284 282 280 279 278 276 275 274 273 272 271 270 269 268 266 266 266 266 266 266 266 266
288 289 286 289 288 291 289 290 290 291 290 291 290 289 289 288 288 287 287 287 284 282 280 279 277 276 275 274 272 271 270 269 268 267 265 265 264 264 264 264 264 264 264 265
290 289 288 289 290 290 290 290 289 289 289 289 288 288 288 288 287 287 284 284 282 280 278 276 274 273 272 271 270 269 268 267 266 264 264 264 264 263 263 264 264 264 264 264
290 289 289 289 290 290 290 290 290 290 289 289 288 288 288 287 285 284 282 279 279 277 275 273 271 271 270 269 268 267 266 265 264 263 263 263 263 263 263 263 263 264 265 265
291 290 290 290 290 290 290 289 288 288 288 287 287 286 283 284 282 280 278 276 274 273 271 270 269 268 267 267 266 266 265 264 263 263 263 263 262 262 262 263 263 264 265 267

GFSCGP_925_thetae_042.txt.gz
Theta_e
310 309 309 308 308 309 310 311 311 310 310 311 311 310 310 307 307 304 302 301 300 299 297 296 296 296 298 300 302 303 306 307 312 315 316 319 319 320 321 321 322 322 323 323
310 310 310 309 309 310 310 312 311 310 310 311 310 309 306 306 305 303 302 300 299 298 296 296 295 294 295 296 297 299 301 304 306 307 308 309 309 306 306 312 315 315 316 318
311 312 310 311 313 314 313 313 312 313 309 309 309 309 309 306 303 302 300 298 298 297 296 295 294 293 293 293 294 295 296 298 300 303 306 306 305 305 306 304 306 307 309 311
311 311 312 313 313 313 315 311 311 312 310 311 308 313 309 307 305 302 299 297 296 296 295 295 294 293 293 293 294 294 295 296 297 299 299 299 297 296 296 298 300 302 302 303
315 311 311 313 313 310 312 309 310 310 309 309 309 310 308 306 306 302 299 298 296 295 294 294 293 292 292 292 293 293 293 293 294 295 296 295 294 294 294 296 297 298 299 299
310 308 308 310 310 309 308 309 309 306 307 311 308 311 312 309 307 302 299 297 296 294 294 293 293 293 292 291 290 290 290 290 290 291 291 291 291 289 289 289 289 289 291 292
312 311 309 310 313 308 308 310 314 315 312 315 314 311 312 306 305 302 299 297 295 293 292 292 292 292 291 291 289 289 289 288 288 288 288 288 287 286 286 285 285 285 285 285
317 319 310 310 312 314 309 310 312 311 316 314 312 317 313 303 300 299 298 296 294 293 292 291 292 292 291 290 289 288 288 287 287 286 286 286 286 285 285 285 285 284 284 284
316 317 308 307 307 310 311 312 310 312 311 317 314 310 306 302 299 297 296 295 295 293 292 291 291 291 291 290 288 287 287 287 286 286 286 285 285 285 285 285 285 284 284 284
314 316 313 310 309 306 309 308 312 310 309 315 313 313 311 305 301 298 296 295 294 293 292 291 291 290 290 289 288 287 286 286 286 286 285 285 285 285 285 285 285 285 285 284
313 312 312 311 312 311 307 309 309 312 309 308 306 311 306 306 301 299 297 296 295 293 292 290 290 289 289 288 288 287 287 286 286 286 286 286 286 286 286 286 285 285 284 284
312 311 308 312 309 308 309 308 308 313 310 308 311 311 306 305 301 298 298 297 295 294 291 289 289 289 288 288 287 287 287 286 286 286 286 286 286 286 286 285 285 284 284 284
311 308 302 306 305 308 310 309 309 309 307 305 313 309 302 300 299 298 299 298 295 292 288 288 288 288 288 288 287 287 286 286 286 286 286 285 285 285 284 284 283 283 282 282
309 305 305 310 303 306 306 307 306 303 300 301 308 305 303 301 301 298 295 296 293 289 288 287 286 287 288 288 287 287 287 286 286 286 286 286 285 284 283 282 281 281 280 280
307 305 308 305 305 305 303 304 304 305 303 302 302 300 300 299 296 295 294 296 292 289 286 285 285 286 287 288 288 287 287 287 287 286 286 285 283 282 281 280 280 279 279 279
301 299 298 295 300 302 302 301 300 302 302 301 302 301 299 296 293 291 289 292 291 290 288 286 285 286 287 288 288 288 287 287 286 286 284 284 284 283 280 279 278 278 277 277
301 296 294 299 296 293 292 294 296 295 295 295 295 295 290 293 293 291 290 288 288 287 287 286 286 288 289 289 288 287 287 286 286 285 285 284 283 280 278 277 276 275 274 274
299 297 296 295 286 291 294 291 293 294 294 292 291 287 288 290 290 288 287 287 287 287 287 287 288 288 287 287 287 286 285 285 284 283 281 279 277 276 275 274 273 272 271 271
297 298 295 297 288 291 294 292 291 292 291 287 288 287 291 289 287 288 287 286 287 287 288 289 289 288 287 286 285 284 283 282 281 279 276 275 274 273 272 270 270 269 268 268
293 296 296 280 286 289 290 288 289 289 288 281 281 283 287 287 285 286 286 287 287 288 288 288 288 287 285 283 282 282 280 278 277 275 274 272 271 270 269 268 267 266 266 266
284 285 297 294 292 286 288 289 289 288 289 282 282 286 286 286 288 288 286 286 288 288 288 287 285 284 283 281 280 278 276 274 273 272 271 270 269 268 268 267 266 265 264 264
288 287 285 284 288 289 286 287 290 289 289 288 288 289 287 287 288 286 286 286 287 286 285 285 283 281 279 278 276 274 272 271 270 270 269 268 268 268 267 265 265 264 263 263
288 287 285 287 287 289 286 289 290 289 289 290 289 288 288 287 287 286 286 285 285 286 283 282 281 278 276 274 273 272 271 270 269 268 268 268 267 266 265 264 264 263 263 263
288 286 287 287 288 288 289 290 289 288 288 288 288 288 287 286 286 286 285 285 284 283 280 278 276 275 273 272 270 270 269 268 267 266 266 266 266 265 264 264 264 262 262 263
288 287 286 287 289 288 288 287 287 287 287 287 286 286 286 285 286 286 285 283 283 280 278 276 274 272 271 270 269 269 267 266 266 265 265 265 264 264 263 263 263 263 264 264
289 290 289 289 290 289 289 288 287 287 287 286 286 286 285 285 285 283 282 282 279 276 274 273 271 270 269 269 268 268 267 266 265 264 264 264 263 263 263 263 263 264 265 266

GFSCGP_925_thetae_045.txt.gz
Theta_e
309 306 307 308 307 308 309 309 310 309 309 311 310 309 308 304 302 301 299 298 297 296 295 294 294 295 297 300 301 302 305 307 314 316 315 309 308 310 314 314 315 318 320 321
309 308 308 307 307 308 309 311 310 309 309 309 309 309 304 303 302 300 298 297 296 295 294 294 293 293 293 295 297 300 301 303 305 305 305 304 304 302 302 303 307 309 311 312
310 312 310 309 309 311 311 311 311 312 310 308 307 308 307 303 300 299 297 296 296 295 294 293 292 292 293 293 294 296 297 300 301 303 304 304 304 302 302 300 301 300 302 304
309 309 312 311 312 312 315 311 312 312 310 312 307 312 309 305 302 299 297 295 295 294 293 292 291 291 291 292 293 293 294 295 296 298 299 299 295 293 292 293 294 295 297 298
314 311 312 313 312 311 314 309 309 309 308 308 308 309 307 304 304 300 298 296 295 294 293 291 291 290 290 291 292 292 294 294 293 293 292 289 288 287 287 288 289 289 288 289
311 307 308 311 308 309 307 309 308 306 306 311 309 310 310 307 306 301 298 296 295 293 292 292 291 290 289 289 289 289 289 289 289 290 290 288 287 286 286 285 285 285 285 285
310 310 308 309 311 308 308 312 316 312 311 315 309 309 309 305 302 301 298 295 294 292 291 291 290 290 288 288 288 288 287 286 286 286 286 286 285 285 285 285 285 285 285 285
315 318 309 309 310 311 309 312 313 308 314 313 310 316 314 301 299 298 296 294 293 292 291 290 291 290 289 288 287 287 287 286 286 285 285 285 285 285 285 285 285 285 285 284
316 317 308 307 307 310 309 311 309 311 299 311 312 310 305 300 298 297 296 294 293 292 291 290 290 290 289 287 287 286 286 286 286 285 285 285 285 285 285 285 285 285 284 284
313 316 311 308 308 305 309 307 313 309 308 308 310 311 311 303 300 297 296 295 294 292 291 290 290 290 289 288 287 286 286 286 286 286 286 286 286 286 286 286 285 285 284 284
311 312 312 310 310 310 308 309 308 310 306 305 304 308 304 305 301 298 296 295 294 293 291 289 289 289 289 288 287 287 286 286 286 286 286 286 286 286 286 286 285 285 284 283
311 310 308 312 308 306 307 308 307 312 309 307 309 310 303 303 301 298 297 296 294 293 291 289 289 288 288 288 287 287 286 286 287 287 287 287 286 286 286 286 285 284 283 283
311 309 305 308 307 307 309 308 306 306 304 305 308 309 302 300 298 297 297 296 295 293 290 287 287 287 287 287 287 287 287 287 287 287 287 286 286 286 285 285 284 282 281 281
309 306 307 313 307 306 308 308 306 302 301 304 310 307 303 302 300 298 297 295 294 293 289 286 286 287 288 288 287 287 287 287 287 286 286 286 285 284 284 283 282 280 280 279
308 308 305 304 304 304 304 304 305 304 305 306 306 305 303 302 300 298 295 293 294 290 287 287 286 286 287 287 287 287 287 287 286 286 285 285 284 283 282 280 279 278 277 276
301 302 301 305 301 303 305 303 304 304 304 303 303 304 302 296 296 294 293 292 294 290 287 285 286 286 286 287 287 287 287 286 285 285 285 283 282 281 280 279 277 276 275 275
301 300 301 309 295 295 299 297 300 301 300 302 304 302 289 293 292 292 291 288 291 290 288 286 285 286 287 288 288 287 287 286 285 284 283 282 281 281 279 277 276 275 274 273
301 301 301 299 292 301 300 291 293 295 295 291 292 288 289 291 291 289 288 288 287 286 286 285 287 288 289 289 288 287 286 285 283 283 283 283 281 279 277 277 275 274 273 271
297 299 294 302 295 297 298 293 291 291 292 290 292 289 290 289 287 287 286 286 286 286 287 288 289 289 289 288 287 286 284 283 282 282 281 279 277 276 275 275 273 272 270 269
296 299 304 288 296 298 294 288 288 289 289 283 284 285 287 286 286 287 286 286 286 288 289 289 289 288 287 286 285 284 283 282 281 279 277 276 275 274 273 271 270 269 268 267
289 293 300 294 299 291 289 289 289 289 290 283 283 286 285 286 287 287 287 285 287 288 289 289 288 288 287 285 283 282 281 279 277 276 275 274 273 272 271 270 269 268 267 265
290 290 291 289 294 292 286 288 291 290 288 287 285 287 286 287 287 287 286 285 286 286 287 288 287 286 285 283 281 279 277 275 275 274 273 273 272 271 270 269 269 267 266 264
289 290 288 290 289 288 286 289 289 289 289 288 288 288 287 287 287 286 286 285 285 286 287 286 285 283 281 279 278 276 274 273 272 272 271 271 270 269 269 268 267 266 264 263
288 286 287 287 288 287 288 288 289 288 288 288 288 288 286 286 286 286 284 284 284 285 285 284 282 280 277 276 275 274 272 271 270 270 269 268 268 267 267 266 266 265 264 263
288 287 286 286 288 288 288 288 289 288 287 287 286 286 286 285 285 285 285 283 284 284 283 281 280 278 276 275 273 271 270 270 269 268 267 267 266 266 265 265 265 264 264 265
287 287 288 287 289 288 288 287 287 287 287 286 286 285 284 284 285 284 283 284 284 282 279 277 276 276 274 273 271 270 269 268 268 267 266 266 265 265 264 263 264 267 266 267

GFSCGP_925_thetae_048.txt.gz
Theta_e
308 306 308 308 306 308 308 309 310 308 309 311 309 309 306 302 299 298 297 296 295 294 293 293 292 294 296 299 302 304 307 308 314 316 312 309 306 305 309 309 310 311 312 314
308 307 306 306 306 307 308 310 309 309 309 309 309 309 304 301 299 298 297 296 295 294 292 292 292 293 294 295 298 300 303 305 306 307 304 302 300 299 300 301 302 304 305 306
310 311 308 308 308 308 308 308 310 311 309 307 307 308 306 300 299 298 296 295 295 294 293 291 291 291 292 294 296 297 299 302 303 303 303 302 300 298 297 295 295 296 298 299
308 309 311 309 309 309 311 309 310 312 310 312 307 312 308 303 300 298 296 295 294 293 292 291 290 290 291 292 294 294 296 297 298 299 300 299 294 289 287 288 289 290 291 291
315 311 310 311 311 310 313 308 309 309 308 308 309 309 306 302 302 299 296 295 293 292 291 290 289 289 289 290 291 290 291 292 292 292 292 289 287 286 286 286 286 285 285 285
312 307 309 310 308 309 306 308 307 305 306 311 310 311 310 306 305 300 297 295 294 292 291 290 289 288 288 288 288 288 288 287 288 288 287 287 286 286 286 286 286 285 285 285
310 309 308 308 308 307 309 311 315 313 311 315 307 308 309 306 303 301 298 295 293 292 290 289 289 288 288 288 287 287 287 286 286 286 286 286 286 286 285 285 285 285 285 285
313 316 309 307 309 309 309 311 314 313 311 311 310 314 314 302 298 298 297 295 293 291 290 289 289 288 287 287 287 286 286 285 285 286 285 285 286 286 286 286 285 285 284 284
313 317 307 308 307 308 309 311 308 309 296 308 311 309 305 300 298 296 295 293 292 291 290 289 290 288 287 286 286 286 286 285 285 285 286 286 286 286 286 286 285 285 284 283
313 316 310 306 306 305 308 307 313 308 308 308 308 310 308 303 300 296 295 294 293 291 290 289 289 289 287 286 286 286 286 286 286 286 286 286 286 286 286 286 285 285 284 283
310 314 312 309 309 308 308 310 307 308 305 305 303 305 304 305 300 298 296 295 294 292 291 289 289 289 288 287 286 286 286 286 286 286 286 286 286 286 286 286 285 284 283 282
311 311 310 311 307 305 306 308 308 312 309 305 306 309 301 302 300 298 297 296 293 292 291 289 289 289 288 287 287 286 286 286 286 286 286 286 286 286 286 286 285 284 283 282
311 311 306 308 308 306 308 306 306 306 304 305 307 308 301 300 299 297 296 295 294 293 290 288 288 287 287 287 287 286 286 286 286 286 286 286 286 286 285 285 284 283 282 281
311 309 309 315 309 308 309 308 306 305 305 305 310 308 305 303 301 298 296 295 294 293 291 288 286 286 288 287 287 286 286 287 287 286 286 286 286 285 284 284 284 283 280 280
310 311 305 303 304 304 305 307 307 307 309 310 309 308 304 303 302 299 295 294 293 293 291 288 287 286 287 287 287 287 286 287 287 286 286 286 285 285 284 284 283 281 279 279
302 305 302 300 302 303 304 304 305 307 304 304 303 304 299 299 298 298 296 294 293 293 291 288 287 286 287 287 288 287 287 287 286 286 285 285 284 283 282 281 279 278 277 277
305 303 302 308 297 301 309 305 304 304 302 304 306 305 292 295 295 295 294 292 291 292 291 287 286 287 287 288 288 287 287 287 286 285 285 284 282 281 279 278 278 277 276 275
301 303 305 299 297 308 301 291 296 303 302 299 293 291 292 294 292 291 290 291 289 288 289 287 286 287 288 288 288 288 287 286 285 284 284 282 281 279 278 277 277 276 275 274
298 302 299 302 300 303 300 291 291 293 294 292 294 293 291 289 288 288 287 286 287 286 286 288 289 288 288 288 288 287 286 285 284 283 282 280 279 278 277 277 276 275 274 273
297 299 308 294 303 306 295 288 289 291 295 288 291 291 288 287 285 286 286 285 285 287 287 288 288 288 288 289 288 286 285 284 282 281 279 278 278 277 276 275 274 273 272 271
297 296 306 298 305 298 291 288 288 292 294 283 284 287 286 287 287 287 287 285 286 287 287 288 288 289 289 289 287 285 284 282 281 279 278 277 276 276 275 273 272 271 270 269
295 298 295 296 299 301 288 288 292 292 288 286 285 286 286 287 287 286 286 286 285 286 288 288 288 288 289 287 286 284 282 281 279 277 276 275 274 274 273 273 272 271 269 268
292 292 292 295 296 289 288 290 289 289 288 287 287 287 286 286 286 286 285 285 285 286 287 288 287 287 287 285 284 282 281 278 276 275 274 274 273 272 272 271 271 269 268 266
288 286 289 290 288 288 288 288 288 288 289 288 287 287 286 286 286 286 284 284 284 286 286 287 285 285 284 283 281 279 278 276 274 274 273 272 271 271 270 270 269 268 267 266
289 287 286 287 288 288 288 287 288 288 287 287 287 287 286 285 285 285 284 283 284 286 286 285 284 283 283 281 278 276 275 274 273 272 271 271 270 269 268 268 268 267 267 266
287 287 288 288 288 289 289 288 287 287 287 286 286 285 284 285 285 283 283 285 285 285 284 283 282 280 278 277 276 274 274 272 271 270 269 268 268 267 266 266 266 267 266 267